BRITE-AUSTRIA

Last updated on Sat Dec 13 2025 00:03:35 GMT+0000 (Coordinated Universal Time)

1 39091U 13009F 25346.25659249 .00000398 00000+0 15016-3 0 9992 2 39091 98.3887 165.3895 0011338 79.6513 280.5952 14.36435525670216
UTC large
Height (km)
Speed (km/s)
/
Latitude / Longitude
Inclination (degrees)
Orbital Period (minutes)
Azimuth
Elevation
Range (km)
Doppler Factor

Next 0 passes for location: London (51.5072 / 0.1276)

Sorry there are no passes over London.